Time,TemperatureF,DewpointF,PressureIn,WindDirection,WindDirectionDegrees,WindSpeedMPH,WindSpeedGustMPH,Humidity,HourlyPrecipIn,Conditions,Clouds,dailyrainin,SolarRadiationWatts/m^2,SoftwareType,DateUTC
2013-02-27 00:00:00,37.2,35.6,30.57,South,186,2.0,7.0,94,0.00,,,0.00,0.0,WUHU216DAVISVP2,2013-02-27 00:00:00,
2013-02-27 00:05:00,37.1,35.5,30.57,West,271,0.0,7.0,94,0.00,,,0.00,0.0,WUHU216DAVISVP2,2013-02-27 00:05:00,
2013-02-27 00:10:00,37.0,35.4,30.57,South,173,0.0,7.0,94,0.00,,,0.00,0.0,WUHU216DAVISVP2,2013-02-27 00:10:00,
2013-02-27 00:15:00,37.0,35.4,30.57,SSE,165,0.0,4.0,94,0.00,,,0.00,0.0,WUHU216DAVISVP2,2013-02-27 00:15:00,
2013-02-27 00:20:00,36.9,35.3,30.57,ESE,121,0.0,4.0,94,0.00,,,0.00,0.0,WUHU216DAVISVP2,2013-02-27 00:20:00,
2013-02-27 00:25:00,36.9,35.3,30.57,SE,144,0.0,2.0,94,0.00,,,0.00,0.0,WUHU216DAVISVP2,2013-02-27 00:25:00,
2013-02-27 00:30:00,36.9,35.3,30.57,South,176,0.0,4.0,94,0.00,,,0.00,0.0,WUHU216DAVISVP2,2013-02-27 00:30:00,
2013-02-27 00:35:00,36.8,35.2,30.57,South,175,0.0,4.0,94,0.00,,,0.00,0.0,WUHU216DAVISVP2,2013-02-27 00:35:00,
2013-02-27 00:40:00,36.8,35.2,30.57,SSE,161,0.0,4.0,94,0.00,,,0.00,0.0,WUHU216DAVISVP2,2013-02-27 00:40:00,
2013-02-27 00:45:00,36.8,35.2,30.57,SSE,161,0.0,4.0,94,0.00,,,0.00,0.0,WUHU216DAVISVP2,2013-02-27 00:45:00,
2013-02-27 00:50:00,36.8,35.2,30.57,SSE,161,0.0,2.0,94,0.00,,,0.00,0.0,WUHU216DAVISVP2,2013-02-27 00:50:00,
2013-02-27 00:55:00,36.7,35.1,30.57,SW,214,0.0,1.0,94,0.00,,,0.00,0.0,WUHU216DAVISVP2,2013-02-27 00:55:00,
2013-02-27 01:00:00,36.7,35.1,30.58,SW,214,0.0,1.0,94,0.00,,,0.00,0.0,WUHU216DAVISVP2,2013-02-27 01:00:00,
2013-02-27 01:05:00,36.6,35.0,30.57,NW,304,0.0,2.0,94,0.00,,,0.00,0.0,WUHU216DAVISVP2,2013-02-27 01:05:00,
2013-02-27 01:10:00,36.6,35.3,30.57,NW,304,0.0,2.0,95,0.00,,,0.00,0.0,WUHU216DAVISVP2,2013-02-27 01:10:00,
2013-02-27 01:15:00,36.6,35.3,30.57,NW,304,0.0,2.0,95,0.00,,,0.00,0.0,WUHU216DAVISVP2,2013-02-27 01:15:00,
2013-02-27 01:20:00,36.6,35.3,30.57,NW,304,0.0,2.0,95,0.00,,,0.00,0.0,WUHU216DAVISVP2,2013-02-27 01:20:00,
2013-02-27 01:25:00,36.5,35.2,30.57,WNW,303,0.0,1.0,95,0.00,,,0.00,0.0,WUHU216DAVISVP2,2013-02-27 01:25:00,
2013-02-27 01:30:00,36.4,35.1,30.57,WNW,303,0.0,1.0,95,0.00,,,0.00,0.0,WUHU216DAVISVP2,2013-02-27 01:30:00,
2013-02-27 01:35:00,36.4,35.1,30.57,South,180,0.0,1.0,95,0.00,,,0.00,0.0,WUHU216DAVISVP2,2013-02-27 01:35:00,
2013-02-27 01:40:00,36.4,35.1,30.57,South,190,0.0,1.0,95,0.00,,,0.00,0.0,WUHU216DAVISVP2,2013-02-27 01:40:00,
2013-02-27 01:45:00,36.3,35.0,30.57,South,190,0.0,1.0,95,0.00,,,0.00,0.0,WUHU216DAVISVP2,2013-02-27 01:45:00,
2013-02-27 01:50:00,36.3,35.0,30.57,South,190,0.0,1.0,95,0.00,,,0.00,0.0,WUHU216DAVISVP2,2013-02-27 01:50:00,
2013-02-27 01:55:00,36.2,34.9,30.57,South,190,0.0,0.0,95,0.00,,,0.00,0.0,WUHU216DAVISVP2,2013-02-27 01:55:00,
2013-02-27 02:00:00,36.2,34.9,30.57,South,190,0.0,1.0,95,0.00,,,0.00,0.0,WUHU216DAVISVP2,2013-02-27 02:00:00,
2013-02-27 02:05:00,36.1,34.8,30.57,West,271,0.0,1.0,95,0.00,,,0.00,0.0,WUHU216DAVISVP2,2013-02-27 02:05:00,
2013-02-27 02:10:00,36.0,34.7,30.57,NNW,334,0.0,4.0,95,0.00,,,0.00,0.0,WUHU216DAVISVP2,2013-02-27 02:10:00,
2013-02-27 02:16:00,36.0,34.4,30.57,NW,320,0.0,4.0,94,0.00,,,0.00,0.0,WUHU216DAVISVP2,2013-02-27 02:16:00,
2013-02-27 02:21:00,35.9,34.3,30.57,NW,321,0.0,4.0,94,0.00,,,0.00,0.0,WUHU216DAVISVP2,2013-02-27 02:21:00,
2013-02-27 02:26:00,35.8,34.2,30.57,NW,312,1.0,4.0,94,0.00,,,0.00,0.0,WUHU216DAVISVP2,2013-02-27 02:26:00,
2013-02-27 02:31:00,35.8,34.2,30.57,NW,313,0.0,2.0,94,0.00,,,0.00,0.0,WUHU216DAVISVP2,2013-02-27 02:31:00,
2013-02-27 02:36:00,35.8,34.2,30.57,North,5,0.0,2.0,94,0.00,,,0.00,0.0,WUHU216DAVISVP2,2013-02-27 02:36:00,
2013-02-27 02:41:00,35.8,34.2,30.57,WNW,296,0.0,2.0,94,0.00,,,0.00,0.0,WUHU216DAVISVP2,2013-02-27 02:41:00,
2013-02-27 02:46:00,35.8,34.2,30.57,WNW,296,0.0,2.0,94,0.00,,,0.00,0.0,WUHU216DAVISVP2,2013-02-27 02:46:00,
2013-02-27 02:51:00,35.8,34.2,30.57,ESE,114,0.0,2.0,94,0.00,,,0.00,0.0,WUHU216DAVISVP2,2013-02-27 02:51:00,
2013-02-27 02:56:00,35.7,34.4,30.56,NW,326,0.0,2.0,95,0.00,,,0.00,0.0,WUHU216DAVISVP2,2013-02-27 02:56:00,
2013-02-27 03:01:00,35.7,34.4,30.57,SE,139,1.0,2.0,95,0.00,,,0.00,0.0,WUHU216DAVISVP2,2013-02-27 03:01:00,
2013-02-27 03:06:00,35.7,34.4,30.57,South,187,0.0,4.0,95,0.00,,,0.00,0.0,WUHU216DAVISVP2,2013-02-27 03:06:00,
2013-02-27 03:11:00,35.6,34.0,30.57,South,180,0.0,4.0,94,0.00,,,0.00,0.0,WUHU216DAVISVP2,2013-02-27 03:11:00,
2013-02-27 03:16:00,35.6,34.0,30.57,South,180,0.0,4.0,94,0.00,,,0.00,0.0,WUHU216DAVISVP2,2013-02-27 03:16:00,
2013-02-27 03:21:00,35.5,33.9,30.57,SSW,202,0.0,2.0,94,0.00,,,0.00,0.0,WUHU216DAVISVP2,2013-02-27 03:21:00,
2013-02-27 03:26:00,35.5,34.2,30.57,SSW,202,0.0,2.0,95,0.00,,,0.00,0.0,WUHU216DAVISVP2,2013-02-27 03:26:00,
2013-02-27 03:31:00,35.5,34.2,30.56,SE,128,0.0,4.0,95,0.00,,,0.00,0.0,WUHU216DAVISVP2,2013-02-27 03:31:00,
2013-02-27 03:36:00,35.4,34.1,30.57,SSE,168,0.0,4.0,95,0.00,,,0.00,0.0,WUHU216DAVISVP2,2013-02-27 03:36:00,
2013-02-27 03:41:00,35.4,34.1,30.57,SSE,168,0.0,4.0,95,0.00,,,0.00,0.0,WUHU216DAVISVP2,2013-02-27 03:41:00,
2013-02-27 03:46:00,35.3,34.0,30.57,SSE,168,0.0,4.0,95,0.00,,,0.00,0.0,WUHU216DAVISVP2,2013-02-27 03:46:00,
2013-02-27 03:51:00,35.3,34.0,30.57,SE,134,0.0,4.0,95,0.00,,,0.00,0.0,WUHU216DAVISVP2,2013-02-27 03:51:00,
2013-02-27 03:56:00,35.3,34.0,30.57,SE,134,0.0,4.0,95,0.00,,,0.00,0.0,WUHU216DAVISVP2,2013-02-27 03:56:00,
2013-02-27 04:01:00,35.3,34.0,30.57,SSE,163,0.0,4.0,95,0.00,,,0.00,0.0,WUHU216DAVISVP2,2013-02-27 04:01:00,
2013-02-27 04:06:00,35.2,33.9,30.57,SSE,155,0.0,4.0,95,0.00,,,0.00,0.0,WUHU216DAVISVP2,2013-02-27 04:06:00,
2013-02-27 04:11:00,35.2,33.9,30.57,SSE,167,0.0,2.0,95,0.00,,,0.00,0.0,WUHU216DAVISVP2,2013-02-27 04:11:00,
2013-02-27 04:16:00,35.2,33.9,30.56,ESE,123,0.0,5.0,95,0.00,,,0.00,0.0,WUHU216DAVISVP2,2013-02-27 04:16:00,
2013-02-27 04:21:00,35.1,33.8,30.57,ESE,123,0.0,5.0,95,0.00,,,0.00,0.0,WUHU216DAVISVP2,2013-02-27 04:21:00,
2013-02-27 04:26:00,35.1,33.8,30.57,ESE,123,0.0,5.0,95,0.00,,,0.00,0.0,WUHU216DAVISVP2,2013-02-27 04:26:00,
2013-02-27 04:31:00,35.1,33.8,30.57,ESE,123,0.0,5.0,95,0.00,,,0.00,0.0,WUHU216DAVISVP2,2013-02-27 04:31:00,
2013-02-27 04:36:00,35.1,33.8,30.56,ESE,123,0.0,1.0,95,0.00,,,0.00,0.0,WUHU216DAVISVP2,2013-02-27 04:36:00,
2013-02-27 04:41:00,35.1,33.8,30.56,ESE,123,0.0,1.0,95,0.00,,,0.00,0.0,WUHU216DAVISVP2,2013-02-27 04:41:00,
2013-02-27 04:46:00,35.1,33.8,30.56,SE,132,0.0,1.0,95,0.00,,,0.00,0.0,WUHU216DAVISVP2,2013-02-27 04:46:00,
2013-02-27 04:51:00,35.1,33.8,30.56,SE,132,0.0,1.0,95,0.00,,,0.00,0.0,WUHU216DAVISVP2,2013-02-27 04:51:00,
2013-02-27 04:56:00,35.0,33.7,30.56,SE,132,0.0,1.0,95,0.00,,,0.00,0.0,WUHU216DAVISVP2,2013-02-27 04:56:00,
2013-02-27 05:00:00,35.0,33.7,30.56,SSE,148,0.0,1.0,95,0.00,,,0.00,0.0,WUHU216DAVISVP2,2013-02-27 05:00:00,
2013-02-27 05:05:00,35.0,33.7,30.57,SSE,150,0.0,1.0,95,0.00,,,0.00,0.0,WUHU216DAVISVP2,2013-02-27 05:05:00,
2013-02-27 05:10:00,35.0,33.7,30.57,SE,140,0.0,1.0,95,0.00,,,0.00,0.0,WUHU216DAVISVP2,2013-02-27 05:10:00,
2013-02-27 05:15:00,35.0,33.4,30.57,West,279,0.0,2.0,94,0.00,,,0.00,0.0,WUHU216DAVISVP2,2013-02-27 05:15:00,
2013-02-27 05:20:00,34.9,33.3,30.56,West,280,0.0,2.0,94,0.00,,,0.00,0.0,WUHU216DAVISVP2,2013-02-27 05:20:00,
2013-02-27 05:25:00,34.9,33.3,30.56,West,280,0.0,2.0,94,0.00,,,0.00,0.0,WUHU216DAVISVP2,2013-02-27 05:25:00,
2013-02-27 05:30:00,34.9,33.6,30.56,West,279,0.0,2.0,95,0.00,,,0.00,0.0,WUHU216DAVISVP2,2013-02-27 05:30:00,
2013-02-27 05:35:00,35.0,33.7,30.56,West,281,0.0,2.0,95,0.00,,,0.00,0.0,WUHU216DAVISVP2,2013-02-27 05:35:00,
2013-02-27 05:40:00,35.0,33.7,30.56,West,281,0.0,2.0,95,0.00,,,0.00,0.0,WUHU216DAVISVP2,2013-02-27 05:40:00,
2013-02-27 05:45:00,35.0,33.7,30.56,SE,130,1.0,2.0,95,0.00,,,0.00,0.0,WUHU216DAVISVP2,2013-02-27 05:45:00,
2013-02-27 05:50:00,35.0,33.7,30.56,SSE,150,0.0,5.0,95,0.00,,,0.00,0.0,WUHU216DAVISVP2,2013-02-27 05:50:00,
2013-02-27 05:55:00,35.0,33.7,30.56,SSE,150,0.0,5.0,95,0.00,,,0.00,0.0,WUHU216DAVISVP2,2013-02-27 05:55:00,
2013-02-27 06:00:00,35.0,33.7,30.56,SSE,158,0.0,5.0,95,0.00,,,0.00,0.0,WUHU216DAVISVP2,2013-02-27 06:00:00,
2013-02-27 06:05:00,35.0,33.7,30.56,SSE,159,0.0,5.0,95,0.00,,,0.00,0.0,WUHU216DAVISVP2,2013-02-27 06:05:00,
2013-02-27 06:10:00,35.0,33.7,30.56,SSE,159,0.0,2.0,95,0.00,,,0.00,0.0,WUHU216DAVISVP2,2013-02-27 06:10:00,
2013-02-27 06:15:00,34.9,33.6,30.56,West,261,0.0,2.0,95,0.00,,,0.00,0.0,WUHU216DAVISVP2,2013-02-27 06:15:00,
2013-02-27 06:20:00,34.9,33.6,30.56,SW,228,0.0,2.0,95,0.00,,,0.00,0.0,WUHU216DAVISVP2,2013-02-27 06:20:00,
2013-02-27 06:25:00,34.8,33.5,30.56,SW,228,0.0,2.0,95,0.00,,,0.00,0.0,WUHU216DAVISVP2,2013-02-27 06:25:00,
2013-02-27 06:30:00,34.8,33.5,30.56,SSW,205,0.0,2.0,95,0.00,,,0.00,0.0,WUHU216DAVISVP2,2013-02-27 06:30:00,
2013-02-27 06:35:00,34.7,33.4,30.56,WSW,253,0.0,1.0,95,0.00,,,0.00,0.0,WUHU216DAVISVP2,2013-02-27 06:35:00,
2013-02-27 06:40:00,34.7,33.4,30.56,WNW,288,0.0,2.0,95,0.00,,,0.00,0.0,WUHU216DAVISVP2,2013-02-27 06:40:00,
2013-02-27 06:45:00,34.6,33.3,30.56,West,261,1.0,2.0,95,0.00,,,0.00,0.0,WUHU216DAVISVP2,2013-02-27 06:45:00,
2013-02-27 06:50:00,34.6,33.3,30.56,West,265,0.0,2.0,95,0.00,,,0.00,0.0,WUHU216DAVISVP2,2013-02-27 06:50:00,
2013-02-27 06:55:00,34.6,33.3,30.56,West,265,0.0,2.0,95,0.00,,,0.00,0.0,WUHU216DAVISVP2,2013-02-27 06:55:00,
2013-02-27 07:00:00,34.6,33.3,30.56,West,265,0.0,1.0,95,0.00,,,0.00,0.0,WUHU216DAVISVP2,2013-02-27 07:00:00,
2013-02-27 07:05:00,34.6,33.3,30.56,West,265,0.0,1.0,95,0.00,,,0.00,0.0,WUHU216DAVISVP2,2013-02-27 07:05:00,
2013-02-27 07:10:00,34.6,33.3,30.56,West,265,0.0,1.0,95,0.00,,,0.00,0.0,WUHU216DAVISVP2,2013-02-27 07:10:00,
2013-02-27 07:15:00,34.6,33.3,30.56,NNE,12,0.0,2.0,95,0.00,,,0.00,0.0,WUHU216DAVISVP2,2013-02-27 07:15:00,
2013-02-27 07:20:00,34.6,33.3,30.56,NE,52,0.0,2.0,95,0.00,,,0.00,0.0,WUHU216DAVISVP2,2013-02-27 07:20:00,
2013-02-27 07:25:00,34.6,33.3,30.57,East,82,2.0,2.0,95,0.00,,,0.00,0.0,WUHU216DAVISVP2,2013-02-27 07:25:00,
2013-02-27 07:30:00,34.6,33.5,30.57,SSE,161,0.0,4.0,96,0.00,,,0.00,0.0,WUHU216DAVISVP2,2013-02-27 07:30:00,
2013-02-27 07:35:00,34.6,33.3,30.57,SSW,194,1.0,4.0,95,0.00,,,0.00,5.0,WUHU216DAVISVP2,2013-02-27 07:35:00,
2013-02-27 07:40:00,34.6,33.3,30.57,SSE,166,0.0,4.0,95,0.00,,,0.00,5.0,WUHU216DAVISVP2,2013-02-27 07:40:00,
2013-02-27 07:45:00,34.5,33.2,30.57,SSE,155,0.0,2.0,95,0.00,,,0.00,5.0,WUHU216DAVISVP2,2013-02-27 07:45:00,
2013-02-27 07:50:00,34.5,33.2,30.57,SSE,157,1.0,2.0,95,0.00,,,0.00,7.0,WUHU216DAVISVP2,2013-02-27 07:50:00,
2013-02-27 07:55:00,34.5,33.2,30.57,ESE,122,0.0,2.0,95,0.00,,,0.00,7.0,WUHU216DAVISVP2,2013-02-27 07:55:00,
2013-02-27 08:00:00,34.6,33.3,30.57,SE,135,0.0,2.0,95,0.00,,,0.00,9.0,WUHU216DAVISVP2,2013-02-27 08:00:00,
2013-02-27 08:05:00,34.6,33.3,30.57,SE,135,0.0,2.0,95,0.00,,,0.00,9.0,WUHU216DAVISVP2,2013-02-27 08:05:00,
2013-02-27 08:10:00,34.6,33.3,30.57,SSE,153,0.0,4.0,95,0.00,,,0.00,11.0,WUHU216DAVISVP2,2013-02-27 08:10:00,
2013-02-27 08:15:00,34.6,33.3,30.57,SSE,167,0.0,4.0,95,0.00,,,0.00,12.0,WUHU216DAVISVP2,2013-02-27 08:15:00,
2013-02-27 08:20:00,34.7,33.4,30.57,SSE,167,0.0,4.0,95,0.00,,,0.00,11.0,WUHU216DAVISVP2,2013-02-27 08:20:00,
2013-02-27 08:25:00,34.7,33.4,30.57,SSE,161,0.0,2.0,95,0.00,,,0.00,12.0,WUHU216DAVISVP2,2013-02-27 08:25:00,
2013-02-27 08:30:00,34.7,33.4,30.57,NNW,334,0.0,2.0,95,0.00,,,0.00,14.0,WUHU216DAVISVP2,2013-02-27 08:30:00,
2013-02-27 08:35:00,34.8,33.5,30.57,South,182,0.0,2.0,95,0.00,,,0.00,16.0,WUHU216DAVISVP2,2013-02-27 08:35:00,
2013-02-27 08:40:00,34.7,33.4,30.57,South,179,0.0,2.0,95,0.00,,,0.00,18.0,WUHU216DAVISVP2,2013-02-27 08:40:00,
2013-02-27 08:45:00,34.8,33.5,30.57,South,174,0.0,2.0,95,0.00,,,0.00,16.0,WUHU216DAVISVP2,2013-02-27 08:45:00,
2013-02-27 08:50:00,34.8,33.5,30.57,SSE,148,0.0,4.0,95,0.00,,,0.00,19.0,WUHU216DAVISVP2,2013-02-27 08:50:00,
2013-02-27 08:55:00,34.8,33.5,30.57,SSE,149,0.0,4.0,95,0.00,,,0.00,19.0,WUHU216DAVISVP2,2013-02-27 08:55:00,
2013-02-27 09:00:00,34.9,33.6,30.57,SSE,167,0.0,4.0,95,0.00,,,0.00,19.0,WUHU216DAVISVP2,2013-02-27 09:00:00,
2013-02-27 09:05:00,34.9,33.6,30.57,SSW,211,0.0,4.0,95,0.00,,,0.00,19.0,WUHU216DAVISVP2,2013-02-27 09:05:00,
2013-02-27 09:10:00,34.9,33.6,30.57,South,179,0.0,2.0,95,0.00,,,0.00,19.0,WUHU216DAVISVP2,2013-02-27 09:10:00,
2013-02-27 09:15:00,35.0,33.7,30.57,SW,217,0.0,2.0,95,0.00,,,0.00,19.0,WUHU216DAVISVP2,2013-02-27 09:15:00,
2013-02-27 09:20:00,35.0,33.7,30.57,SW,217,0.0,2.0,95,0.00,,,0.00,21.0,WUHU216DAVISVP2,2013-02-27 09:20:00,
2013-02-27 09:25:00,35.0,33.7,30.57,South,178,0.0,4.0,95,0.00,,,0.00,21.0,WUHU216DAVISVP2,2013-02-27 09:25:00,
2013-02-27 09:30:00,35.1,33.8,30.57,SSW,197,0.0,4.0,95,0.00,,,0.00,23.0,WUHU216DAVISVP2,2013-02-27 09:30:00,
2013-02-27 09:35:00,35.1,33.8,30.57,SSW,197,0.0,4.0,95,0.00,,,0.00,25.0,WUHU216DAVISVP2,2013-02-27 09:35:00,
2013-02-27 09:40:00,35.2,33.9,30.57,SSW,197,0.0,4.0,95,0.00,,,0.00,26.0,WUHU216DAVISVP2,2013-02-27 09:40:00,
2013-02-27 09:45:00,35.2,33.9,30.57,NW,317,0.0,2.0,95,0.00,,,0.00,33.0,WUHU216DAVISVP2,2013-02-27 09:45:00,
2013-02-27 09:50:00,35.3,34.0,30.57,SW,225,0.0,4.0,95,0.00,,,0.00,35.0,WUHU216DAVISVP2,2013-02-27 09:50:00,
2013-02-27 09:55:00,35.3,34.0,30.57,NW,321,0.0,4.0,95,0.00,,,0.00,32.0,WUHU216DAVISVP2,2013-02-27 09:55:00,
2013-02-27 10:00:00,35.4,34.1,30.57,SSW,196,0.0,4.0,95,0.00,,,0.00,33.0,WUHU216DAVISVP2,2013-02-27 10:00:00,
2013-02-27 10:05:00,35.4,34.1,30.57,SE,131,0.0,4.0,95,0.00,,,0.00,33.0,WUHU216DAVISVP2,2013-02-27 10:05:00,
2013-02-27 10:10:00,35.4,34.1,30.57,SE,132,0.0,2.0,95,0.00,,,0.00,33.0,WUHU216DAVISVP2,2013-02-27 10:10:00,
2013-02-27 10:15:00,35.5,33.9,30.57,SSE,153,0.0,2.0,94,0.00,,,0.00,33.0,WUHU216DAVISVP2,2013-02-27 10:15:00,
2013-02-27 10:20:00,35.6,34.0,30.57,ESE,109,0.0,2.0,94,0.00,,,0.00,35.0,WUHU216DAVISVP2,2013-02-27 10:20:00,
2013-02-27 10:25:00,35.6,34.0,30.57,ESE,109,0.0,2.0,94,0.00,,,0.00,35.0,WUHU216DAVISVP2,2013-02-27 10:25:00,
2013-02-27 10:30:00,35.7,34.4,30.57,NNW,339,1.0,2.0,95,0.00,,,0.00,37.0,WUHU216DAVISVP2,2013-02-27 10:30:00,
2013-02-27 10:35:00,35.8,34.2,30.57,NNW,339,0.0,2.0,94,0.00,,,0.00,47.0,WUHU216DAVISVP2,2013-02-27 10:35:00,
2013-02-27 10:40:00,35.9,34.3,30.56,SE,126,0.0,2.0,94,0.00,,,0.00,51.0,WUHU216DAVISVP2,2013-02-27 10:40:00,
2013-02-27 10:45:00,36.0,34.4,30.56,North,355,0.0,2.0,94,0.00,,,0.00,54.0,WUHU216DAVISVP2,2013-02-27 10:45:00,
2013-02-27 10:50:00,36.0,34.4,30.56,North,355,0.0,1.0,94,0.00,,,0.00,60.0,WUHU216DAVISVP2,2013-02-27 10:50:00,
2013-02-27 10:55:00,36.2,34.3,30.56,WSW,254,0.0,1.0,93,0.00,,,0.00,56.0,WUHU216DAVISVP2,2013-02-27 10:55:00,
2013-02-27 11:00:00,36.3,34.7,30.56,NE,44,1.0,2.0,94,0.00,,,0.00,49.0,WUHU216DAVISVP2,2013-02-27 11:00:00,
2013-02-27 11:05:00,36.4,34.5,30.56,NW,321,0.0,2.0,93,0.00,,,0.00,47.0,WUHU216DAVISVP2,2013-02-27 11:05:00,
2013-02-27 11:10:00,36.4,34.5,30.56,NW,326,0.0,2.0,93,0.00,,,0.00,54.0,WUHU216DAVISVP2,2013-02-27 11:10:00,
2013-02-27 11:15:00,36.6,34.7,30.56,NNW,341,0.0,2.0,93,0.00,,,0.00,65.0,WUHU216DAVISVP2,2013-02-27 11:15:00,
2013-02-27 11:20:00,36.6,34.7,30.56,SW,222,0.0,2.0,93,0.00,,,0.00,72.0,WUHU216DAVISVP2,2013-02-27 11:20:00,
2013-02-27 11:25:00,36.8,34.6,30.55,SSW,209,0.0,1.0,92,0.00,,,0.00,90.0,WUHU216DAVISVP2,2013-02-27 11:25:00,
2013-02-27 11:30:00,36.9,34.7,30.56,WSW,250,0.0,4.0,92,0.00,,,0.00,79.0,WUHU216DAVISVP2,2013-02-27 11:30:00,
2013-02-27 11:35:00,37.1,34.7,30.56,WNW,301,0.0,8.0,91,0.00,,,0.00,81.0,WUHU216DAVISVP2,2013-02-27 11:35:00,
2013-02-27 11:40:00,37.2,34.8,30.55,SE,132,0.0,8.0,91,0.00,,,0.00,72.0,WUHU216DAVISVP2,2013-02-27 11:40:00,
2013-02-27 11:45:00,37.3,34.9,30.55,North,355,0.0,8.0,91,0.00,,,0.00,76.0,WUHU216DAVISVP2,2013-02-27 11:45:00,
2013-02-27 11:50:00,37.3,34.6,30.55,NNE,31,0.0,8.0,90,0.00,,,0.00,97.0,WUHU216DAVISVP2,2013-02-27 11:50:00,
2013-02-27 11:55:00,37.5,34.8,30.55,WNW,284,2.0,4.0,90,0.00,,,0.00,149.0,WUHU216DAVISVP2,2013-02-27 11:55:00,
2013-02-27 12:00:00,37.9,34.9,30.55,WNW,285,0.0,4.0,89,0.00,,,0.00,139.0,WUHU216DAVISVP2,2013-02-27 12:00:00,
2013-02-27 12:05:00,38.2,35.2,30.55,ENE,66,2.0,4.0,89,0.00,,,0.00,104.0,WUHU216DAVISVP2,2013-02-27 12:05:00,
2013-02-27 12:10:00,38.3,35.0,30.54,SW,217,0.0,4.0,88,0.00,,,0.00,86.0,WUHU216DAVISVP2,2013-02-27 12:10:00,
2013-02-27 12:15:00,38.4,35.1,30.54,South,179,1.0,2.0,88,0.00,,,0.00,84.0,WUHU216DAVISVP2,2013-02-27 12:15:00,
2013-02-27 12:20:00,38.5,35.2,30.54,South,178,0.0,2.0,88,0.00,,,0.00,86.0,WUHU216DAVISVP2,2013-02-27 12:20:00,
2013-02-27 12:25:00,38.6,35.3,30.54,South,178,0.0,2.0,88,0.00,,,0.00,95.0,WUHU216DAVISVP2,2013-02-27 12:25:00,
2013-02-27 12:30:00,38.6,35.3,30.54,SW,226,1.0,2.0,88,0.00,,,0.00,114.0,WUHU216DAVISVP2,2013-02-27 12:30:00,
2013-02-27 12:35:00,38.7,35.1,30.54,NW,314,0.0,2.0,87,0.00,,,0.00,120.0,WUHU216DAVISVP2,2013-02-27 12:35:00,
2013-02-27 12:40:00,38.8,34.9,30.54,NW,319,0.0,2.0,86,0.00,,,0.00,128.0,WUHU216DAVISVP2,2013-02-27 12:40:00,
2013-02-27 12:45:00,39.0,35.1,30.54,West,267,0.0,2.0,86,0.00,,,0.00,113.0,WUHU216DAVISVP2,2013-02-27 12:45:00,
2013-02-27 12:50:00,39.1,35.2,30.54,WNW,298,2.0,2.0,86,0.00,,,0.00,125.0,WUHU216DAVISVP2,2013-02-27 12:50:00,
2013-02-27 12:55:00,39.3,35.4,30.53,NW,313,0.0,2.0,86,0.00,,,0.00,118.0,WUHU216DAVISVP2,2013-02-27 12:55:00,
2013-02-27 13:00:00,39.4,35.2,30.53,North,355,2.0,5.0,85,0.00,,,0.00,165.0,WUHU216DAVISVP2,2013-02-27 13:00:00,
2013-02-27 13:05:00,39.5,35.1,30.53,WNW,295,0.0,5.0,84,0.00,,,0.00,139.0,WUHU216DAVISVP2,2013-02-27 13:05:00,
2013-02-27 13:10:00,39.9,35.7,30.53,South,180,0.0,5.0,85,0.00,,,0.00,181.0,WUHU216DAVISVP2,2013-02-27 13:10:00,
2013-02-27 13:15:00,40.5,36.6,30.53,South,180,0.0,5.0,86,0.00,,,0.00,272.0,WUHU216DAVISVP2,2013-02-27 13:15:00,
2013-02-27 13:20:00,41.4,36.9,30.53,South,169,0.0,2.0,84,0.00,,,0.00,179.0,WUHU216DAVISVP2,2013-02-27 13:20:00,
2013-02-27 13:25:00,41.6,36.5,30.53,SW,229,0.0,2.0,82,0.00,,,0.00,134.0,WUHU216DAVISVP2,2013-02-27 13:25:00,
2013-02-27 13:30:00,41.6,36.2,30.53,SSE,152,4.0,5.0,81,0.00,,,0.00,190.0,WUHU216DAVISVP2,2013-02-27 13:30:00,
2013-02-27 13:35:00,41.4,35.7,30.52,NW,325,0.0,6.0,80,0.00,,,0.00,116.0,WUHU216DAVISVP2,2013-02-27 13:35:00,
2013-02-27 13:40:00,41.2,35.5,30.52,WNW,291,3.0,6.0,80,0.00,,,0.00,104.0,WUHU216DAVISVP2,2013-02-27 13:40:00,
2013-02-27 13:45:00,41.4,35.7,30.52,NW,304,0.0,6.0,80,0.00,,,0.00,487.0,WUHU216DAVISVP2,2013-02-27 13:45:00,
2013-02-27 13:50:00,42.3,36.6,30.52,NNE,28,0.0,6.0,80,0.00,,,0.00,475.0,WUHU216DAVISVP2,2013-02-27 13:50:00,
2013-02-27 13:55:00,43.4,37.0,30.52,WNW,288,0.0,6.0,78,0.00,,,0.00,522.0,WUHU216DAVISVP2,2013-02-27 13:55:00,
2013-02-27 14:00:00,43.8,36.5,30.52,NW,315,2.0,6.0,75,0.00,,,0.00,482.0,WUHU216DAVISVP2,2013-02-27 14:00:00,
2013-02-27 14:05:00,44.3,36.6,30.52,WNW,301,0.0,6.0,74,0.00,,,0.00,524.0,WUHU216DAVISVP2,2013-02-27 14:05:00,
2013-02-27 14:10:00,45.1,38.0,30.52,North,5,0.0,5.0,76,0.00,,,0.00,185.0,WUHU216DAVISVP2,2013-02-27 14:10:00,
2013-02-27 14:15:00,45.5,37.3,30.52,SSW,197,4.0,4.0,73,0.00,,,0.00,476.0,WUHU216DAVISVP2,2013-02-27 14:15:00,
2013-02-27 14:20:00,45.7,37.2,30.51,SE,141,0.0,4.0,72,0.00,,,0.00,188.0,WUHU216DAVISVP2,2013-02-27 14:20:00,
2013-02-27 14:25:00,45.1,36.3,30.51,West,267,0.0,4.0,71,0.00,,,0.00,264.0,WUHU216DAVISVP2,2013-02-27 14:25:00,
2013-02-27 14:30:00,44.9,36.4,30.51,NNW,327,0.0,4.0,72,0.00,,,0.00,410.0,WUHU216DAVISVP2,2013-02-27 14:30:00,
2013-02-27 14:35:00,45.2,37.1,30.51,SSE,155,0.0,4.0,73,0.00,,,0.00,330.0,WUHU216DAVISVP2,2013-02-27 14:35:00,
2013-02-27 14:40:00,45.4,36.2,30.51,NW,324,1.0,6.0,70,0.00,,,0.00,350.0,WUHU216DAVISVP2,2013-02-27 14:40:00,
2013-02-27 14:45:00,45.3,36.1,30.51,ESE,104,0.0,6.0,70,0.00,,,0.00,357.0,WUHU216DAVISVP2,2013-02-27 14:45:00,
2013-02-27 14:50:00,45.4,35.8,30.51,NNE,15,0.0,7.0,69,0.00,,,0.00,357.0,WUHU216DAVISVP2,2013-02-27 14:50:00,
2013-02-27 14:55:00,45.7,36.6,30.51,South,184,0.0,7.0,70,0.00,,,0.00,353.0,WUHU216DAVISVP2,2013-02-27 14:55:00,
2013-02-27 15:00:00,46.2,36.3,30.51,WNW,298,0.0,7.0,68,0.00,,,0.00,332.0,WUHU216DAVISVP2,2013-02-27 15:00:00,
2013-02-27 15:05:00,46.1,35.8,30.51,SE,144,0.0,7.0,67,0.00,,,0.00,318.0,WUHU216DAVISVP2,2013-02-27 15:05:00,
2013-02-27 15:10:00,46.1,35.8,30.51,NW,308,0.0,5.0,67,0.00,,,0.00,313.0,WUHU216DAVISVP2,2013-02-27 15:10:00,
2013-02-27 15:15:00,46.0,35.4,30.51,North,355,0.0,5.0,66,0.00,,,0.00,121.0,WUHU216DAVISVP2,2013-02-27 15:15:00,
2013-02-27 15:20:00,45.8,35.6,30.51,NE,52,0.0,5.0,67,0.00,,,0.00,294.0,WUHU216DAVISVP2,2013-02-27 15:20:00,
2013-02-27 15:25:00,45.6,35.4,30.50,WNW,295,0.0,2.0,67,0.00,,,0.00,236.0,WUHU216DAVISVP2,2013-02-27 15:25:00,
2013-02-27 15:30:00,44.9,35.8,30.50,SSW,197,0.0,5.0,70,0.00,,,0.00,79.0,WUHU216DAVISVP2,2013-02-27 15:30:00,
2013-02-27 15:35:00,44.4,35.7,30.50,SE,144,0.0,5.0,71,0.00,,,0.00,74.0,WUHU216DAVISVP2,2013-02-27 15:35:00,
2013-02-27 15:40:00,43.8,35.1,30.50,SE,144,0.0,5.0,71,0.00,,,0.00,67.0,WUHU216DAVISVP2,2013-02-27 15:40:00,
2013-02-27 15:45:00,43.5,35.1,30.50,SSE,161,0.0,5.0,72,0.00,,,0.00,69.0,WUHU216DAVISVP2,2013-02-27 15:45:00,
2013-02-27 15:50:00,43.3,35.0,30.50,SW,227,0.0,1.0,72,0.00,,,0.00,65.0,WUHU216DAVISVP2,2013-02-27 15:50:00,
2013-02-27 15:55:00,43.2,34.9,30.50,WNW,290,0.0,5.0,72,0.00,,,0.00,69.0,WUHU216DAVISVP2,2013-02-27 15:55:00,
2013-02-27 16:00:00,43.0,35.0,30.50,ESE,115,0.0,5.0,73,0.00,,,0.00,77.0,WUHU216DAVISVP2,2013-02-27 16:00:00,
2013-02-27 16:05:00,42.9,35.2,30.50,SSE,148,0.0,5.0,74,0.00,,,0.00,79.0,WUHU216DAVISVP2,2013-02-27 16:05:00,
2013-02-27 16:10:00,42.9,35.6,30.50,SE,140,0.0,5.0,75,0.00,,,0.00,76.0,WUHU216DAVISVP2,2013-02-27 16:10:00,
2013-02-27 16:15:00,42.7,35.1,30.49,NNE,33,0.0,2.0,74,0.00,,,0.00,65.0,WUHU216DAVISVP2,2013-02-27 16:15:00,
2013-02-27 16:20:00,42.7,35.1,30.50,North,5,0.0,4.0,74,0.00,,,0.00,60.0,WUHU216DAVISVP2,2013-02-27 16:20:00,
2013-02-27 16:25:00,42.6,35.0,30.49,North,355,0.0,4.0,74,0.00,,,0.00,58.0,WUHU216DAVISVP2,2013-02-27 16:25:00,
2013-02-27 16:30:00,42.6,35.3,30.49,North,360,0.0,4.0,75,0.00,,,0.00,54.0,WUHU216DAVISVP2,2013-02-27 16:30:00,
2013-02-27 16:35:00,42.5,35.2,30.49,South,177,1.0,2.0,75,0.00,,,0.00,54.0,WUHU216DAVISVP2,2013-02-27 16:35:00,
2013-02-27 16:40:00,42.4,35.1,30.49,South,181,0.0,4.0,75,0.00,,,0.00,46.0,WUHU216DAVISVP2,2013-02-27 16:40:00,
2013-02-27 16:45:00,42.3,35.0,30.49,North,360,0.0,4.0,75,0.00,,,0.00,46.0,WUHU216DAVISVP2,2013-02-27 16:45:00,
2013-02-27 16:50:00,42.2,34.9,30.49,North,5,0.0,4.0,75,0.00,,,0.00,46.0,WUHU216DAVISVP2,2013-02-27 16:50:00,
2013-02-27 16:55:00,42.2,35.2,30.49,ESE,118,0.0,4.0,76,0.00,,,0.00,46.0,WUHU216DAVISVP2,2013-02-27 16:55:00,
2013-02-27 17:00:00,42.1,35.1,30.49,ESE,118,0.0,4.0,76,0.00,,,0.00,42.0,WUHU216DAVISVP2,2013-02-27 17:00:00,
2013-02-27 17:05:00,42.0,35.4,30.49,SE,139,0.0,2.0,77,0.00,,,0.00,37.0,WUHU216DAVISVP2,2013-02-27 17:05:00,
2013-02-27 17:10:00,42.0,35.4,30.49,South,169,0.0,5.0,77,0.00,,,0.00,32.0,WUHU216DAVISVP2,2013-02-27 17:10:00,
2013-02-27 17:15:00,41.8,35.2,30.49,South,169,0.0,5.0,77,0.00,,,0.00,26.0,WUHU216DAVISVP2,2013-02-27 17:15:00,
2013-02-27 17:20:00,41.7,35.1,30.49,South,169,0.0,5.0,77,0.00,,,0.00,19.0,WUHU216DAVISVP2,2013-02-27 17:20:00,
2013-02-27 17:25:00,41.4,34.8,30.49,South,169,0.0,5.0,77,0.00,,,0.00,14.0,WUHU216DAVISVP2,2013-02-27 17:25:00,
2013-02-27 17:30:00,41.3,34.7,30.49,South,169,0.0,0.0,77,0.00,,,0.00,11.0,WUHU216DAVISVP2,2013-02-27 17:30:00,
2013-02-27 17:35:00,41.1,34.5,30.49,South,169,0.0,0.0,77,0.00,,,0.00,5.0,WUHU216DAVISVP2,2013-02-27 17:35:00,
2013-02-27 17:40:00,40.8,34.2,30.49,South,169,0.0,0.0,77,0.00,,,0.00,5.0,WUHU216DAVISVP2,2013-02-27 17:40:00,
2013-02-27 17:45:00,40.6,34.3,30.49,South,169,0.0,0.0,78,0.00,,,0.00,0.0,WUHU216DAVISVP2,2013-02-27 17:45:00,
2013-02-27 17:50:00,40.3,34.0,30.49,South,169,0.0,0.0,78,0.00,,,0.00,0.0,WUHU216DAVISVP2,2013-02-27 17:50:00,
2013-02-27 17:51:00,40.2,34.2,30.49,South,169,0.0,1.0,79,0.00,,,0.00,0.0,WUHU216DAVISVP2,2013-02-27 17:51:00,
2013-02-27 17:55:00,40.0,34.0,30.49,South,169,0.0,1.0,79,0.00,,,0.00,0.0,WUHU216DAVISVP2,2013-02-27 17:55:00,
2013-02-27 18:00:00,39.8,33.8,30.49,South,169,0.0,1.0,79,0.00,,,0.00,0.0,WUHU216DAVISVP2,2013-02-27 18:00:00,
2013-02-27 18:05:00,39.5,33.6,30.49,South,169,0.0,1.0,79,0.00,,,0.00,0.0,WUHU216DAVISVP2,2013-02-27 18:05:00,
2013-02-27 18:10:00,39.3,33.7,30.49,South,169,0.0,1.0,80,0.00,,,0.00,0.0,WUHU216DAVISVP2,2013-02-27 18:10:00,
2013-02-27 18:15:00,39.0,33.7,30.49,South,169,0.0,0.0,81,0.00,,,0.00,0.0,WUHU216DAVISVP2,2013-02-27 18:15:00,
2013-02-27 18:20:00,38.7,33.4,30.49,South,169,0.0,0.0,81,0.00,,,0.00,0.0,WUHU216DAVISVP2,2013-02-27 18:20:00,
2013-02-27 18:25:00,38.4,33.4,30.49,South,169,0.0,0.0,82,0.00,,,0.00,0.0,WUHU216DAVISVP2,2013-02-27 18:25:00,
2013-02-27 18:30:00,38.2,33.2,30.49,South,169,0.0,0.0,82,0.00,,,0.00,0.0,WUHU216DAVISVP2,2013-02-27 18:30:00,
2013-02-27 18:35:00,38.0,33.3,30.49,South,169,0.0,0.0,83,0.00,,,0.00,0.0,WUHU216DAVISVP2,2013-02-27 18:35:00,
2013-02-27 18:40:00,37.8,33.1,30.49,South,169,0.0,0.0,83,0.00,,,0.00,0.0,WUHU216DAVISVP2,2013-02-27 18:40:00,
2013-02-27 18:45:00,37.7,33.3,30.49,South,169,0.0,0.0,84,0.00,,,0.00,0.0,WUHU216DAVISVP2,2013-02-27 18:45:00,
2013-02-27 18:50:00,37.5,33.1,30.49,South,169,0.0,0.0,84,0.00,,,0.00,0.0,WUHU216DAVISVP2,2013-02-27 18:50:00,
2013-02-27 18:55:00,37.4,33.3,30.49,South,169,0.0,0.0,85,0.00,,,0.00,0.0,WUHU216DAVISVP2,2013-02-27 18:55:00,
2013-02-27 19:00:00,37.3,33.2,30.49,South,169,0.0,0.0,85,0.00,,,0.00,0.0,WUHU216DAVISVP2,2013-02-27 19:00:00,
2013-02-27 19:05:00,37.2,33.1,30.49,South,169,0.0,0.0,85,0.00,,,0.00,0.0,WUHU216DAVISVP2,2013-02-27 19:05:00,
2013-02-27 19:10:00,37.1,33.0,30.49,SSE,149,0.0,1.0,85,0.00,,,0.00,0.0,WUHU216DAVISVP2,2013-02-27 19:10:00,
2013-02-27 19:15:00,37.0,33.2,30.48,South,174,0.0,1.0,86,0.00,,,0.00,0.0,WUHU216DAVISVP2,2013-02-27 19:15:00,
2013-02-27 19:20:00,36.9,33.1,30.48,South,174,0.0,1.0,86,0.00,,,0.00,0.0,WUHU216DAVISVP2,2013-02-27 19:20:00,
2013-02-27 19:25:00,36.9,33.1,30.49,South,174,0.0,1.0,86,0.00,,,0.00,0.0,WUHU216DAVISVP2,2013-02-27 19:25:00,
2013-02-27 19:30:00,36.8,33.0,30.48,South,174,0.0,1.0,86,0.00,,,0.00,0.0,WUHU216DAVISVP2,2013-02-27 19:30:00,
2013-02-27 19:35:00,36.8,33.0,30.49,South,174,0.0,0.0,86,0.00,,,0.00,0.0,WUHU216DAVISVP2,2013-02-27 19:35:00,
2013-02-27 19:40:00,36.8,33.0,30.49,SSE,149,0.0,1.0,86,0.00,,,0.00,0.0,WUHU216DAVISVP2,2013-02-27 19:40:00,
2013-02-27 19:45:00,36.7,32.9,30.49,SSE,149,0.0,1.0,86,0.00,,,0.00,0.0,WUHU216DAVISVP2,2013-02-27 19:45:00,
2013-02-27 19:50:00,36.7,32.9,30.49,SSE,149,0.0,1.0,86,0.00,,,0.00,0.0,WUHU216DAVISVP2,2013-02-27 19:50:00,
2013-02-27 19:55:00,36.6,32.8,30.49,SSE,149,0.0,1.0,86,0.00,,,0.00,0.0,WUHU216DAVISVP2,2013-02-27 19:55:00,
2013-02-27 20:00:00,36.5,33.0,30.49,SSE,149,0.0,1.0,87,0.00,,,0.00,0.0,WUHU216DAVISVP2,2013-02-27 20:00:00,
2013-02-27 20:05:00,36.4,32.9,30.49,SSE,149,0.0,1.0,87,0.00,,,0.00,0.0,WUHU216DAVISVP2,2013-02-27 20:05:00,
2013-02-27 20:10:00,36.4,32.9,30.49,SSW,192,0.0,1.0,87,0.00,,,0.00,0.0,WUHU216DAVISVP2,2013-02-27 20:10:00,
2013-02-27 20:15:00,36.4,32.9,30.49,SSW,192,0.0,1.0,87,0.00,,,0.00,0.0,WUHU216DAVISVP2,2013-02-27 20:15:00,
2013-02-27 20:20:00,36.3,33.0,30.49,SSE,167,0.0,1.0,88,0.00,,,0.00,0.0,WUHU216DAVISVP2,2013-02-27 20:20:00,
2013-02-27 20:25:00,36.3,32.8,30.49,SSE,167,0.0,1.0,87,0.00,,,0.00,0.0,WUHU216DAVISVP2,2013-02-27 20:25:00,
2013-02-27 20:30:00,36.3,32.8,30.49,SSE,165,0.0,1.0,87,0.00,,,0.00,0.0,WUHU216DAVISVP2,2013-02-27 20:30:00,
2013-02-27 20:35:00,36.2,32.7,30.49,SSE,165,0.0,1.0,87,0.00,,,0.00,0.0,WUHU216DAVISVP2,2013-02-27 20:35:00,
2013-02-27 20:40:00,36.1,32.6,30.49,SSE,165,0.0,1.0,87,0.00,,,0.00,0.0,WUHU216DAVISVP2,2013-02-27 20:40:00,
2013-02-27 20:45:00,35.9,32.4,30.49,SSE,165,0.0,1.0,87,0.00,,,0.00,0.0,WUHU216DAVISVP2,2013-02-27 20:45:00,
2013-02-27 20:50:00,35.8,32.3,30.49,West,265,0.0,1.0,87,0.00,,,0.00,0.0,WUHU216DAVISVP2,2013-02-27 20:50:00,
2013-02-27 20:55:00,35.8,32.6,30.49,SE,146,0.0,2.0,88,0.00,,,0.00,0.0,WUHU216DAVISVP2,2013-02-27 20:55:00,
2013-02-27 21:00:00,35.8,32.6,30.49,SE,146,0.0,2.0,88,0.00,,,0.00,0.0,WUHU216DAVISVP2,2013-02-27 21:00:00,
2013-02-27 21:05:00,35.7,32.5,30.49,SE,146,0.0,2.0,88,0.00,,,0.00,0.0,WUHU216DAVISVP2,2013-02-27 21:05:00,
2013-02-27 21:10:00,35.7,32.5,30.49,SE,146,0.0,2.0,88,0.00,,,0.00,0.0,WUHU216DAVISVP2,2013-02-27 21:10:00,
2013-02-27 21:15:00,35.6,32.1,30.49,South,182,0.0,2.0,87,0.00,,,0.00,0.0,WUHU216DAVISVP2,2013-02-27 21:15:00,
2013-02-27 21:20:00,35.6,32.1,30.49,SSW,196,0.0,2.0,87,0.00,,,0.00,0.0,WUHU216DAVISVP2,2013-02-27 21:20:00,
2013-02-27 21:25:00,35.5,32.0,30.49,SSW,194,0.0,2.0,87,0.00,,,0.00,0.0,WUHU216DAVISVP2,2013-02-27 21:25:00,
2013-02-27 21:30:00,35.5,32.3,30.49,South,190,0.0,2.0,88,0.00,,,0.00,0.0,WUHU216DAVISVP2,2013-02-27 21:30:00,
2013-02-27 21:35:00,35.4,31.9,30.49,SW,224,0.0,2.0,87,0.00,,,0.00,0.0,WUHU216DAVISVP2,2013-02-27 21:35:00,
2013-02-27 21:40:00,35.4,31.9,30.49,SW,224,0.0,2.0,87,0.00,,,0.00,0.0,WUHU216DAVISVP2,2013-02-27 21:40:00,
2013-02-27 21:45:00,35.4,31.9,30.49,SW,223,0.0,2.0,87,0.00,,,0.00,0.0,WUHU216DAVISVP2,2013-02-27 21:45:00,
2013-02-27 21:50:00,35.3,32.1,30.49,West,260,0.0,1.0,88,0.00,,,0.00,0.0,WUHU216DAVISVP2,2013-02-27 21:50:00,
2013-02-27 21:55:00,35.2,32.0,30.49,West,260,0.0,1.0,88,0.00,,,0.00,0.0,WUHU216DAVISVP2,2013-02-27 21:55:00,
2013-02-27 22:00:00,35.1,31.9,30.49,West,259,0.0,1.0,88,0.00,,,0.00,0.0,WUHU216DAVISVP2,2013-02-27 22:00:00,
2013-02-27 22:05:00,35.0,31.8,30.49,West,266,0.0,1.0,88,0.00,,,0.00,0.0,WUHU216DAVISVP2,2013-02-27 22:05:00,
2013-02-27 22:10:00,35.0,31.8,30.49,West,266,0.0,1.0,88,0.00,,,0.00,0.0,WUHU216DAVISVP2,2013-02-27 22:10:00,
2013-02-27 22:15:00,34.9,31.7,30.49,SW,231,0.0,1.0,88,0.00,,,0.00,0.0,WUHU216DAVISVP2,2013-02-27 22:15:00,
2013-02-27 22:20:00,34.9,31.9,30.49,SW,231,0.0,1.0,89,0.00,,,0.00,0.0,WUHU216DAVISVP2,2013-02-27 22:20:00,
2013-02-27 22:25:00,34.9,31.9,30.49,SW,231,0.0,1.0,89,0.00,,,0.00,0.0,WUHU216DAVISVP2,2013-02-27 22:25:00,
2013-02-27 22:30:00,34.9,31.9,30.49,West,281,0.0,1.0,89,0.00,,,0.00,0.0,WUHU216DAVISVP2,2013-02-27 22:30:00,
2013-02-27 22:35:00,35.0,32.0,30.49,SE,134,0.0,4.0,89,0.00,,,0.00,0.0,WUHU216DAVISVP2,2013-02-27 22:35:00,
2013-02-27 22:40:00,35.0,32.1,30.49,SSE,159,0.0,4.0,89,0.00,,,0.00,0.0,WUHU216DAVISVP2,2013-02-27 22:40:00,
2013-02-27 22:45:00,34.9,32.0,30.49,SSE,159,0.0,4.0,89,0.00,,,0.00,0.0,WUHU216DAVISVP2,2013-02-27 22:45:00,
2013-02-27 22:50:00,34.9,32.0,30.49,SSE,159,0.0,4.0,89,0.00,,,0.00,0.0,WUHU216DAVISVP2,2013-02-27 22:50:00,
2013-02-27 22:55:00,34.8,31.9,30.49,SSE,159,0.0,1.0,89,0.00,,,0.00,0.0,WUHU216DAVISVP2,2013-02-27 22:55:00,
2013-02-27 23:00:00,34.7,31.7,30.49,SSE,159,0.0,1.0,89,0.00,,,0.00,0.0,WUHU216DAVISVP2,2013-02-27 23:00:00,
2013-02-27 23:05:00,34.6,31.6,30.49,SSE,159,0.0,1.0,89,0.00,,,0.00,0.0,WUHU216DAVISVP2,2013-02-27 23:05:00,
2013-02-27 23:10:00,34.4,31.5,30.49,SSW,211,0.0,1.0,89,0.00,,,0.00,0.0,WUHU216DAVISVP2,2013-02-27 23:10:00,
2013-02-27 23:15:00,34.2,31.3,30.49,SSW,211,0.0,1.0,89,0.00,,,0.00,0.0,WUHU216DAVISVP2,2013-02-27 23:15:00,
2013-02-27 23:20:00,34.0,31.1,30.49,SSW,211,0.0,1.0,89,0.00,,,0.00,0.0,WUHU216DAVISVP2,2013-02-27 23:20:00,
2013-02-27 23:25:00,33.9,31.2,30.49,SSW,211,0.0,1.0,90,0.00,,,0.00,0.0,WUHU216DAVISVP2,2013-02-27 23:25:00,
2013-02-27 23:30:00,33.8,31.1,30.49,SSW,211,0.0,0.0,90,0.00,,,0.00,0.0,WUHU216DAVISVP2,2013-02-27 23:30:00,
2013-02-27 23:35:00,33.7,31.0,30.49,SSW,211,0.0,0.0,90,0.00,,,0.00,0.0,WUHU216DAVISVP2,2013-02-27 23:35:00,
2013-02-27 23:40:00,33.7,31.0,30.49,SSW,211,0.0,0.0,90,0.00,,,0.00,0.0,WUHU216DAVISVP2,2013-02-27 23:40:00,
2013-02-27 23:45:00,33.6,31.2,30.49,SW,215,0.0,0.0,91,0.00,,,0.00,0.0,WUHU216DAVISVP2,2013-02-27 23:45:00,
2013-02-27 23:50:00,33.6,31.2,30.49,SW,215,0.0,1.0,91,0.00,,,0.00,0.0,WUHU216DAVISVP2,2013-02-27 23:50:00,
2013-02-27 23:55:00,33.6,31.5,30.49,SW,215,0.0,1.0,92,0.00,,,0.00,0.0,WUHU216DAVISVP2,2013-02-27 23:55:00,